This is the latest recevied weather packets stored in our database for station/object K5MGY. If no packets are shown the sender has not sent any weather packets the latest 10 day(s).
| Time | Temp. | Humidity | Pressure | Rain* | Wind** | Luminosity | Snow |
|---|---|---|---|---|---|---|---|
| 1778075419 | 13.33° C | 78% | 1038.5 hPa | 0 mm | - | 34 W/m² | - |
| 1778075116 | 13.33° C | 77% | 1038.5 hPa | 0 mm | - | 34 W/m² | - |
| 1778074812 | 13.33° C | 77% | 1037.9 hPa | 0 mm | - | 33 W/m² | - |
| 1778074509 | 13.33° C | 76% | 1037.7 hPa | 0 mm | - | 35 W/m² | - |
| 1778074206 | 13.33° C | 75% | 1037.9 hPa | 0 mm | - | 32 W/m² | - |
| 1778073903 | 13.33° C | 75% | 1037.7 hPa | 0 mm | - | 32 W/m² | - |
| 1778073601 | 13.33° C | 75% | 1037.9 hPa | 0 mm | - | 30 W/m² | - |
| 1778073298 | 13.89° C | 75% | 1037.7 hPa | 0 mm | - | 34 W/m² | - |
| 1778072994 | 13.89° C | 75% | 1037.5 hPa | 0 mm | - | 31 W/m² | - |
| 1778072690 | 13.89° C | 75% | 1037.2 hPa | 0 mm | - | 29 W/m² | - |
| 1778072388 | 13.89° C | 75% | 1037.2 hPa | 0 mm | - | 25 W/m² | - |
| 1778072087 | 13.89° C | 74% | 1037 hPa | 0 mm | - | 26 W/m² | - |
| 1778071784 | 13.89° C | 75% | 1037.1 hPa | 0 mm | - | 24 W/m² | - |
| 1778071482 | 13.89° C | 75% | 1037.1 hPa | 0 mm | - | 20 W/m² | - |
| 1778071179 | 13.89° C | 74% | 1037.1 hPa | 0 mm | - | 17 W/m² | - |
| 1778070877 | 13.89° C | 74% | 1037.1 hPa | 0 mm | - | 15 W/m² | - |
| 1778070574 | 13.89° C | 74% | 1036.9 hPa | 0 mm | - | 15 W/m² | - |
| 1778070271 | 13.89° C | 75% | 1036.7 hPa | 0 mm | - | 15 W/m² | - |
| 1778069970 | 13.89° C | 75% | 1036.7 hPa | 0 mm | - | 11 W/m² | - |
| 1778069666 | 13.89° C | 75% | 1036.6 hPa | 0 mm | - | 8 W/m² | - |
| 1778069363 | 13.89° C | 75% | 1036.6 hPa | 0 mm | - | 6 W/m² | - |
| 1778069061 | 13.89° C | 75% | 1036.5 hPa | 0 mm | - | 5 W/m² | - |
| 1778068758 | 13.89° C | 75% | 1036.4 hPa | 0 mm | - | 3 W/m² | - |
| 1778068456 | 13.89° C | 76% | 1036.5 hPa | 0 mm | - | 2 W/m² | - |
| 1778068154 | 13.89° C | 75% | 1036.6 hPa | 0 mm | - | 2 W/m² | - |
* Rain latest hour (hover to see other rain measurements)
** Current wind speed in m/s (hover to see current wind gust speed)